| time (UTC) | temp C | wind direction | speed KPH | gust KPH | rain 1hr cm | rain 24hr cm | rain mn cm | humidity % | barometer mb |
| 20260506192520 | 6 | 34 | 4.8 | 9.7 | 0.43 | 3.61 | 3.33 | 99 | 1006.9 |
| 20260506191516 | 6 | 44 | 4.8 | 12.9 | 0.46 | 3.56 | 3.28 | 99 | 1006.8 |
| 20260506190532 | 6 | 35 | 6.4 | 14.5 | 0.51 | 3.48 | 3.20 | 99 | 1007.0 |
| 20260506185548 | 6 | 50 | 6.4 | 16.1 | 0.53 | 3.40 | 3.12 | 99 | 1006.8 |
| 20260506184524 | 6 | 48 | 9.7 | 17.7 | 0.51 | 3.30 | 3.02 | 99 | 1006.6 |
| 20260506183520 | 6 | 56 | 6.4 | 9.7 | 0.61 | 3.23 | 2.95 | 99 | 1007.0 |
| 20260506182517 | 6 | 50 | 11.3 | 22.5 | 0.71 | 3.17 | 2.90 | 99 | 1006.7 |
| 20260506181533 | 6 | 36 | 9.7 | 20.9 | 0.69 | 3.10 | 2.82 | 99 | 1006.8 |
| 20260506180530 | 7 | 45 | 11.3 | 17.7 | 0.64 | 2.97 | 2.69 | 99 | 1006.7 |
| 20260506175526 | 7 | 39 | 9.7 | 17.7 | 0.58 | 2.87 | 2.59 | 99 | 1006.6 |
| 20260506174522 | 7 | 43 | 4.8 | 11.3 | 0.56 | 2.79 | 2.51 | 99 | 1007.0 |
| 20260506173538 | 7 | 38 | 8.0 | 14.5 | 0.46 | 2.62 | 2.34 | 99 | 1006.4 |
| 20260506172534 | 7 | 40 | 9.7 | 14.5 | 0.38 | 2.46 | 2.18 | 99 | 1006.3 |
| 20260506171531 | 7 | 36 | 6.4 | 11.3 | 0.38 | 2.41 | 2.13 | 99 | 1006.8 |
| 20260506170527 | 7 | 45 | 6.4 | 11.3 | 0.41 | 2.34 | 2.06 | 99 | 1007.0 |
| 20260506165523 | 7 | 43 | 6.4 | 11.3 | 0.41 | 2.29 | 2.01 | 99 | 1007.3 |
| 20260506164519 | 7 | 69 | 4.8 | 11.3 | 0.43 | 2.24 | 1.96 | 99 | 1007.2 |
| 20260506163535 | 7 | 37 | 4.8 | 11.3 | 0.51 | 2.16 | 1.88 | 99 | 1007.4 |
| 20260506162551 | 7 | 30 | 3.2 | 12.9 | 0.53 | 2.08 | 1.80 | 99 | 1007.2 |
| 20260506161527 | 7 | 39 | 6.4 | 12.9 | 0.56 | 2.03 | 1.75 | 99 | 1007.2 |
| 20260506160524 | 7 | 37 | 6.4 | 12.9 | 0.56 | 1.93 | 1.65 | 99 | 1007.4 |
| 20260506155520 | 8 | 37 | 4.8 | 11.3 | 0.58 | 1.88 | 1.60 | 99 | 1007.4 |
| 20260506154516 | 8 | 42 | 4.8 | 9.7 | 0.58 | 1.80 | 1.52 | 99 | 1007.6 |
| 20260506153551 | 8 | 36 | 4.8 | 9.7 | 0.56 | 1.65 | 1.37 | 99 | 1007.5 |
| 20260506152527 | 8 | 33 | 3.2 | 6.4 | 0.53 | 1.55 | 1.27 | 99 | 1007.8 |
| 20260506151524 | 8 | 38 | 6.4 | 11.3 | 0.56 | 1.47 | 1.19 | 99 | 1007.8 |
| 20260506150519 | 8 | 40 | 4.8 | 11.3 | 0.51 | 1.37 | 1.09 | 99 | 1007.9 |
| 20260506145556 | 8 | 39 | 3.2 | 9.7 | 0.48 | 1.30 | 1.02 | 99 | 1008.3 |
| 20260506144533 | 8 | 49 | 4.8 | 9.7 | 0.46 | 1.22 | 0.94 | 99 | 1008.4 |
| 20260506143529 | 8 | 52 | 3.2 | 6.4 | 0.38 | 1.09 | 0.81 | 99 | 1008.5 |
| 20260506142525 | 8 | 47 | 4.8 | 12.9 | 0.36 | 1.02 | 0.74 | 99 | 1008.4 |
| 20260506141522 | 9 | 26 | 4.8 | 9.7 | 0.30 | 0.91 | 0.64 | 99 | 1008.3 |
| 20260506140518 | 9 | 30 | 6.4 | 11.3 | 0.30 | 0.86 | 0.58 | 99 | 1008.1 |
| 20260506135534 | 10 | 52 | 4.8 | 14.5 | 0.30 | 0.81 | 0.53 | 99 | 1008.0 |
| 20260506134530 | 10 | 40 | 3.2 | 9.7 | 0.30 | 0.76 | 0.48 | 99 | 1008.0 |
| 20260506133526 | 10 | 45 | 4.8 | 11.3 | 0.28 | 0.71 | 0.43 | 99 | 1008.0 |
| 20260506132522 | 10 | 47 | 3.2 | 6.4 | 0.28 | 0.66 | 0.38 | 99 | 1007.9 |
| 20260506131518 | 10 | 22 | 3.2 | 9.7 | 0.25 | 0.61 | 0.33 | 99 | 1008.1 |
| 20260506130534 | 11 | 62 | 6.4 | 12.9 | 0.20 | 0.56 | 0.28 | 99 | 1007.9 |
| 20260506125530 | 11 | 29 | 3.2 | 9.7 | 0.15 | 0.51 | 0.23 | 99 | 1008.3 |
| 20260506124526 | 11 | 41 | 6.4 | 11.3 | 0.10 | 0.46 | 0.18 | 99 | 1008.5 |
| 20260506123522 | 11 | 32 | 3.2 | 6.4 | 0.08 | 0.43 | 0.15 | 99 | 1008.7 |
| 20260506122518 | 11 | 33 | 4.8 | 9.7 | 0.03 | 0.38 | 0.10 | 99 | 1008.8 |
| 20260506121534 | 11 | 32 | 4.8 | 11.3 | 0.00 | 0.36 | 0.08 | 99 | 1008.3 |
| 20260506120529 | 11 | 29 | 6.4 | 14.5 | 0.00 | 0.36 | 0.08 | 99 | 1007.8 |
| 20260506115545 | 11 | 32 | 3.2 | 6.4 | 0.03 | 0.36 | 0.08 | 99 | 1008.0 |
| 20260506114523 | 12 | 40 | 1.6 | 3.2 | 0.03 | 0.36 | 0.08 | 99 | 1008.1 |
| 20260506113538 | 12 | 280 | 0.0 | 1.6 | 0.03 | 0.36 | 0.08 | 99 | 1008.2 |
| 20260506112534 | 12 | 40 | 4.8 | 11.3 | 0.03 | 0.36 | 0.08 | 99 | 1007.7 |
| 20260506111530 | 12 | 17 | 3.2 | 11.3 | 0.03 | 0.36 | 0.08 | 99 | 1007.9 |
| 20260506110525 | 12 | 0.0 | 0.0 | 0.03 | 0.36 | 0.08 | 99 | 1008.0 | |
| 20260506105522 | 12 | 141 | 0.0 | 1.6 | 0.00 | 0.33 | 0.05 | 99 | 1007.9 |
| 20260506104517 | 12 | 0.0 | 0.0 | 0.00 | 0.33 | 0.05 | 99 | 1007.5 | |
| 20260506103613 | 12 | 0.0 | 0.0 | 0.00 | 0.33 | 0.05 | 99 | 1007.6 | |
| 20260506102529 | 12 | 0.0 | 0.0 | 0.00 | 0.33 | 0.05 | 99 | 1007.6 | |
| 20260506101548 | 12 | 0.0 | 0.0 | 0.00 | 0.33 | 0.05 | 99 | 1007.3 | |
| 20260506100522 | 12 | 0.0 | 0.0 | 0.00 | 0.33 | 0.05 | 99 | 1007.3 | |
| 20260506095518 | 12 | 0.0 | 0.0 | 0.00 | 0.33 | 0.05 | 99 | 1007.5 | |
| 20260506094534 | 12 | 0.0 | 0.0 | 0.00 | 0.33 | 0.05 | 99 | 1007.4 | |
| 20260506093530 | 12 | 0.0 | 0.0 | 0.00 | 0.33 | 0.05 | 99 | 1007.2 | |
| 20260506092546 | 12 | 0.0 | 0.0 | 0.00 | 0.33 | 0.05 | 99 | 1007.4 | |
| 20260506091522 | 12 | 0.0 | 0.0 | 0.00 | 0.33 | 0.05 | 99 | 1007.6 | |
| 20260506090518 | 12 | 0.0 | 0.0 | 0.00 | 0.33 | 0.05 | 99 | 1007.5 | |
| 20260506085554 | 12 | 0.0 | 0.0 | 0.00 | 0.33 | 0.05 | 99 | 1007.6 | |
| 20260506084530 | 12 | 0.0 | 0.0 | 0.00 | 0.33 | 0.05 | 99 | 1007.9 | |
| 20260506083527 | 12 | 0.0 | 0.0 | 0.00 | 0.33 | 0.05 | 99 | 1008.0 | |
| 20260506082523 | 12 | 0.0 | 0.0 | 0.00 | 0.33 | 0.05 | 99 | 1008.2 | |
| 20260506081519 | 12 | 0.0 | 0.0 | 0.00 | 0.33 | 0.05 | 99 | 1007.9 | |
| 20260506080535 | 12 | 0.0 | 0.0 | 0.00 | 0.33 | 0.05 | 99 | 1008.1 | |
| 20260506073523 | 12 | 0.0 | 0.0 | 0.00 | 0.33 | 0.05 | 99 | 1008.2 | |
| 20260506072520 | 13 | 0.0 | 0.0 | 0.00 | 0.33 | 0.05 | 99 | 1008.1 | |
| 20260506071516 | 13 | 0.0 | 0.0 | 0.00 | 0.33 | 0.05 | 99 | 1008.3 | |
| 20260506070531 | 13 | 0.0 | 0.0 | 0.00 | 0.33 | 0.05 | 99 | 1008.3 | |
| 20260506062516 | 13 | 0.0 | 0.0 | 0.00 | 0.33 | 0.05 | 99 | 1008.4 | |
| 20260506061532 | 13 | 0.0 | 0.0 | 0.00 | 0.33 | 0.05 | 99 | 1008.3 | |
| 20260506060528 | 13 | 0.0 | 0.0 | 0.00 | 0.33 | 0.05 | 99 | 1008.3 | |
| 20260506050524 | 13 | 0.0 | 0.0 | 0.05 | 0.33 | 0.05 | 99 | 1009.0 | |
| 20260506044540 | 13 | 0.0 | 0.0 | 0.08 | 0.33 | 0.05 | 99 | 1009.1 | |
| 20260506043535 | 13 | 0.0 | 0.0 | 0.08 | 0.33 | 0.05 | 99 | 1008.7 | |
| 20260506042551 | 14 | 0.0 | 0.0 | 0.08 | 0.33 | 0.05 | 99 | 1008.7 | |
| 20260506041528 | 13 | 316 | 1.6 | 4.8 | 0.05 | 0.30 | 0.03 | 99 | 1008.6 |
| 20260506040545 | 14 | 0.0 | 0.0 | 0.03 | 0.28 | 0.00 | 99 | 1008.6 | |
| 20260506035521 | 14 | 0.0 | 0.0 | 0.00 | 0.25 | 0.25 | 99 | 1008.3 | |
| 20260506034517 | 13 | 0.0 | 0.0 | 0.00 | 0.25 | 0.25 | 99 | 1008.4 | |
| 20260506033532 | 14 | 285 | 0.0 | 1.6 | 0.00 | 0.25 | 0.25 | 98 | 1008.3 |
| 20260506032529 | 14 | 0.0 | 0.0 | 0.00 | 0.25 | 0.25 | 97 | 1008.1 | |
| 20260506031524 | 14 | 0.0 | 0.0 | 0.00 | 0.25 | 0.25 | 97 | 1008.0 | |
| 20260506030540 | 14 | 0.0 | 0.0 | 0.00 | 0.25 | 0.25 | 97 | 1007.9 | |
| 20260506025516 | 14 | 0.0 | 0.0 | 0.00 | 0.25 | 0.25 | 97 | 1007.9 | |
| 20260506024532 | 14 | 0.0 | 0.0 | 0.00 | 0.25 | 0.25 | 97 | 1007.8 | |
| 20260506023529 | 14 | 0.0 | 0.0 | 0.00 | 0.25 | 0.25 | 97 | 1007.8 | |
| 20260506022526 | 14 | 0.0 | 0.0 | 0.00 | 0.25 | 0.25 | 97 | 1007.8 | |
| 20260506021521 | 14 | 0.0 | 0.0 | 0.00 | 0.25 | 0.25 | 97 | 1007.9 | |
| 20260506020516 | 14 | 0.0 | 0.0 | 0.00 | 0.25 | 0.25 | 97 | 1007.7 | |
| 20260506015552 | 14 | 0.0 | 0.0 | 0.00 | 0.25 | 0.25 | 97 | 1007.7 | |
| 20260506014548 | 13 | 0.0 | 0.0 | 0.00 | 0.25 | 0.25 | 96 | 1007.7 | |
| 20260506013524 | 14 | 0.0 | 0.0 | 0.00 | 0.25 | 0.25 | 96 | 1007.6 | |
| 20260506012521 | 14 | 0.0 | 0.0 | 0.00 | 0.25 | 0.25 | 95 | 1007.4 | |
| 20260506011517 | 13 | 0.0 | 0.0 | 0.00 | 0.25 | 0.25 | 98 | 1007.5 | |
| 20260506010533 | 14 | 0.0 | 0.0 | 0.00 | 0.25 | 0.25 | 97 | 1007.1 | |
| 20260506005649 | 13 | 0.0 | 0.0 | 0.00 | 0.25 | 0.25 | 97 | 1006.7 | |
| 20260506004525 | 14 | 0.0 | 0.0 | 0.00 | 0.25 | 0.25 | 95 | 1006.5 | |
| 20260506003521 | 14 | 0.0 | 0.0 | 0.00 | 0.25 | 0.25 | 95 | 1006.6 | |
| 20260506002516 | 15 | 0.0 | 0.0 | 0.00 | 0.25 | 0.25 | 94 | 1006.6 | |
| 20260506001553 | 15 | 0.0 | 0.0 | 0.00 | 0.25 | 0.25 | 92 | 1006.5 | |
| 20260506000549 | 16 | 0.0 | 0.0 | 0.00 | 0.25 | 0.25 | 90 | 1006.4 | |
| 20260505235524 | 16 | 0.0 | 0.0 | 0.00 | 0.25 | 0.25 | 92 | 1006.5 | |
| 20260505234520 | 16 | 0.0 | 0.0 | 0.00 | 0.25 | 0.25 | 93 | 1006.3 | |
| 20260505233517 | 16 | 0.0 | 0.0 | 0.00 | 0.25 | 0.25 | 91 | 1006.2 | |
| 20260505232534 | 16 | 0.0 | 0.0 | 0.00 | 0.25 | 0.25 | 90 | 1006.3 | |
| 20260505231529 | 17 | 141 | 1.6 | 3.2 | 0.00 | 0.25 | 0.25 | 84 | 1006.0 |
| 20260505230537 | 18 | 228 | 1.6 | 3.2 | 0.00 | 0.25 | 0.25 | 77 | 1006.3 |
| 20260505225522 | 18 | 0.0 | 0.0 | 0.00 | 0.25 | 0.25 | 76 | 1006.4 | |
| 20260505224517 | 18 | 201 | 3.2 | 9.7 | 0.00 | 0.25 | 0.25 | 75 | 1006.4 |
| 20260505223534 | 18 | 199 | 1.6 | 6.4 | 0.00 | 0.25 | 0.25 | 78 | 1006.2 |
| 20260505222530 | 18 | 213 | 3.2 | 6.4 | 0.00 | 0.25 | 0.25 | 78 | 1006.0 |
| 20260505221547 | 18 | 216 | 3.2 | 9.7 | 0.00 | 0.25 | 0.25 | 76 | 1005.7 |
| 20260505220523 | 18 | 166 | 1.6 | 6.4 | 0.00 | 0.25 | 0.25 | 74 | 1005.5 |
| 20260505215519 | 19 | 166 | 3.2 | 4.8 | 0.00 | 0.25 | 0.25 | 73 | 1005.7 |
| 20260505214535 | 19 | 276 | 8.0 | 16.1 | 0.00 | 0.25 | 0.25 | 71 | 1005.8 |
| 20260505213551 | 20 | 276 | 8.0 | 14.5 | 0.00 | 0.25 | 0.25 | 70 | 1006.0 |
| 20260505212528 | 19 | 299 | 3.2 | 6.4 | 0.00 | 0.25 | 0.25 | 78 | 1006.0 |
| 20260505211544 | 19 | 32 | 0.0 | 1.6 | 0.00 | 0.25 | 0.25 | 81 | 1005.5 |
| 20260505210520 | 19 | 170 | 3.2 | 6.4 | 0.00 | 0.25 | 0.25 | 79 | 1004.9 |
| 20260505205516 | 19 | 138 | 3.2 | 9.7 | 0.03 | 0.25 | 0.25 | 81 | 1004.4 |
| 20260505204531 | 18 | 169 | 3.2 | 9.7 | 0.15 | 0.25 | 0.25 | 85 | 1004.6 |
| 20260505203528 | 19 | 0.0 | 0.0 | 0.25 | 0.25 | 0.25 | 84 | 1004.1 | |
| 20260505202525 | 18 | 0.0 | 0.0 | 0.25 | 0.25 | 0.25 | 81 | 1004.0 | |
| 20260505201520 | 18 | 277 | 8.0 | 17.7 | 0.25 | 0.25 | 0.25 | 80 | 1004.9 |
| 20260505200516 | 17 | 276 | 12.9 | 24.1 | 0.25 | 0.25 | 0.25 | 84 | 1004.9 |
| 20260505195532 | 17 | 260 | 14.5 | 30.6 | 0.23 | 0.23 | 0.23 | 83 | 1005.1 |
| 20260505194528 | 20 | 278 | 19.3 | 35.4 | 0.10 | 0.10 | 0.10 | 73 | 1004.3 |
| 20260505193524 | 24 | 256 | 12.9 | 29.0 | 0.00 | 0.00 | 0.00 | 51 | 1003.1 |